This is the latest recevied weather packets stored in our database for station/object K5OBH. If no packets are shown the sender has not sent any weather packets the latest 1 day(s).
| Time | Temp. | Humidity | Pressure | Rain* | Wind** | Luminosity | Snow |
|---|---|---|---|---|---|---|---|
| 1836274668 | 24.44° C | 77% | 1015.9 hPa | 0 mm | 1.34 m/s, 201° | 0 W/m² | - |
| 1836274521 | 24.44° C | 77% | 1015.8 hPa | 0 mm | 2.68 m/s, 148° | 0 W/m² | - |
| 1836274366 | 24.44° C | 77% | 1015.9 hPa | 0 mm | 1.34 m/s, 205° | 0 W/m² | - |
| 1836274219 | 24.44° C | 77% | 1015.9 hPa | 0 mm | 1.34 m/s, 193° | 0 W/m² | - |
| 1836274064 | 24.44° C | 77% | 1015.7 hPa | 0 mm | 1.79 m/s, 150° | 0 W/m² | - |
| 1778051188 | 10° C | 73% | 1012.5 hPa | 0 mm | 2.24 m/s, 13° | 0 W/m² | - |
| 1778050885 | 10° C | 73% | 1012.5 hPa | 0 mm | 1.34 m/s, 2° | 0 W/m² | - |
| 1778050583 | 10° C | 72% | 1012.6 hPa | 0 mm | 3.13 m/s, 354° | 0 W/m² | - |
| 1778050279 | 10° C | 72% | 1012.5 hPa | 0 mm | 3.13 m/s, 43° | 0 W/m² | - |
| 1778049976 | 10° C | 72% | 1012.6 hPa | 0 mm | 3.58 m/s, 71° | 0 W/m² | - |
| 1778049671 | 10° C | 72% | 1012.5 hPa | 0 mm | 0.89 m/s, 30° | 0 W/m² | - |
| 1778049370 | 10° C | 71% | 1012.5 hPa | 0 mm | 1.79 m/s, 98° | 0 W/m² | - |
| 1778049067 | 10° C | 71% | 1012.5 hPa | 0 mm | 2.68 m/s, 16° | 0 W/m² | - |
| 1778048765 | 10° C | 71% | 1012.5 hPa | 0 mm | 4.02 m/s, 52° | 0 W/m² | - |
| 1778048462 | 10° C | 71% | 1012.4 hPa | 0 mm | 3.58 m/s, 60° | 0 W/m² | - |
| 1778048158 | 10° C | 71% | 1012.3 hPa | 0 mm | 1.34 m/s, 8° | 0 W/m² | - |
| 1778047856 | 10° C | 69% | 1012.7 hPa | 0 mm | 4.92 m/s, 97° | 0 W/m² | - |
| 1778047554 | 10° C | 69% | 1012.7 hPa | 0 mm | 2.24 m/s, 7° | 0 W/m² | - |
| 1778047251 | 10° C | 69% | 1012.8 hPa | 0 mm | 4.02 m/s, 63° | 0 W/m² | - |
| 1778046948 | 10° C | 69% | 1012.6 hPa | 0 mm | 4.47 m/s, 36° | 0 W/m² | - |
| 1778046644 | 10° C | 69% | 1012.5 hPa | 0 mm | 2.68 m/s, 30° | 0 W/m² | - |
| 1778046342 | 10° C | 69% | 1012.5 hPa | 0 mm | 1.34 m/s, 73° | 0 W/m² | - |
| 1778046037 | 10° C | 70% | 1012.4 hPa | 0 mm | 2.68 m/s, 45° | 0 W/m² | - |
| 1778045736 | 10° C | 70% | 1012.6 hPa | 0 mm | 3.13 m/s, 350° | 0 W/m² | - |
| 1778045434 | 10° C | 70% | 1012.4 hPa | 0 mm | 2.24 m/s, 5° | 0 W/m² | - |
* Rain latest hour (hover to see other rain measurements)
** Current wind speed in m/s (hover to see current wind gust speed)